Location: Davayat
(45.9471°N, 3.1105°E)
Time: 17:32:26
(UTC+00:00)

Helios 1A Rocket - Pass Details

Date: 01 December 2020
Orbit: 564 x 585 km, 98.3° (Epoch: 17 January)

Event Time Altitude Azimuth Distance (km) Brightness Sun altitude
Exits shadow 17:32:18 24° 53° (NE) 1,188 4.0 -14.8°
Drops below altitude 10° 17:35:06 10° 11° (N) 1,871 5.3 -15.3°
Sets 17:37:31 0° 358° (N) 2,774 6.3 -15.7°
